Hourly Data Report for July 02, 2021

MANIWAKI AIRPORT
QUEBEC
Current Station Operator: ECCC - MSC

46°16'29.000" N
75°59'31.000" W
199.70 m
7034482
71721
WMJ

Download Data

Hourly Data (July 2021)
Hourly Data Report for July 2, 2021
TIME
LST
Temp Definition
°C
Dew Point Definition
°C
Rel Hum Definition
%
Precip. Amount Definition
mm

Wind Dir Definition
10's deg

Wind Spd Definition
km/h
Visibility Definition
km
Stn Press Definition
kPa
Hmdx Definition


Wind Chill Definition


Weather Definition


00:00 16.2 14.3 88 0.0 36 6   98.82     LegendNANA
01:00 15.8 14.2 90 0.0 1 8   98.81     LegendNANA
02:00 15.7 14.1 90 0.0 1 8   98.83     LegendNANA
03:00 15.4 14.1 92 0.0 36 9   98.81     LegendNANA
04:00 15.0 14.1 94 0.0 35 8   98.84     LegendNANA
05:00 14.7 13.9 95 0.0 36 7   98.86     LegendNANA
06:00 15.2 14.1 94 0.0 36 9   98.94     LegendNANA
07:00 16.8 14.7 87 0.0 3 9   98.95     LegendNANA
08:00 18.3 14.0 76 0.0 3 14   98.96     LegendNANA
09:00 19.2 13.6 70 0.0 5 15   98.95     LegendNANA
10:00 19.7 13.8 69 0.0 4 12   98.97     LegendNANA
11:00 19.7 12.8 65 0.0 3 12   98.95     LegendNANA
12:00 20.6 12.6 60 0.0 3 12   98.89     LegendNANA
13:00 21.6 13.1 58 0.0 4 14   98.84     LegendNANA
14:00 21.9 13.1 57 0.0 2 13   98.84 25   LegendNANA
15:00 22.8 13.0 54 0.0 1 16   98.83 26   LegendNANA
16:00 22.0 12.4 55 0.0 3 14   98.82     LegendNANA
17:00 21.8 13.4 59 0.0 7 11   98.79 25   LegendNANA
18:00 21.5 12.7 57 0.0 4 9   98.78     LegendNANA
19:00 20.2 12.3 60 0.0 6 9   98.80     LegendNANA
20:00 16.3 13.1 82 0.0 2 5   98.82     LegendNANA
21:00 14.6 13.1 91 0.0 36 3   98.86     LegendNANA
22:00 14.1 12.7 91 0.0 2 6   98.86     LegendNANA
23:00 13.1 12.4 96 0.0 16 3   98.86     LegendNANA

Notes on Data Quality.

Legend

  • E = Estimated
  • M = Missing
  • NA = Not Available*
  • [empty] = Indicates an unobserved value
Date modified: